Temperature
20 21 20 20 20 20 20 20 20 20 20 20 20 20 19 19 19 19 19 19 19 19 18 18 18 18 18 18 18 18 18 18 18 18 18 18 17 17 17 17 17 17 17
21 21 20 20 20 20 20 20 20 20 19 19 19 19 19 19 19 19 19 19 19 19 19 18 18 18 18 18 18 18 18 18 18 18 18 17 17 17 17 17 17 17 17
21 21 20 20 20 20 20 20 19 19 19 19 19 19 19 19 19 19 19 19 19 19 19 19 19 18 18 18 18 18 18 18 17 17 17 17 17 17 17 17 17 17 17
21 21 20 20 20 20 20 19 19 19 19 19 19 19 19 19 19 19 18 18 19 19 19 19 19 18 18 18 18 18 17 17 17 17 17 17 17 17 17 17 17 17 17
21 21 20 20 20 20 20 19 19 19 19 19 19 19 19 19 19 19 19 19 19 19 19 19 19 18 18 18 18 17 17 17 17 17 17 17 17 17 17 17 17 17 17
21 21 20 20 20 20 20 19 19 19 19 19 19 19 19 19 19 19 19 19 19 19 18 18 18 18 18 18 17 17 17 17 17 17 17 17 17 17 17 17 17 17 17
21 21 20 20 20 20 20 19 19 19 19 19 19 19 19 19 19 19 19 19 19 19 19 18 18 18 18 18 17 17 17 17 17 17 17 17 18 18 17 17 17 17 17
21 21 20 20 20 20 20 19 19 19 19 19 19 19 19 19 19 19 19 18 18 18 18 18 18 18 18 18 17 17 17 17 17 17 17 18 18 18 17 17 17 17 17
21 21 20 20 20 20 20 19 19 19 19 19 19 19 19 19 19 19 18 18 18 18 18 18 18 18 18 18 17 17 17 17 17 17 17 18 18 18 17 17 17 17 17
21 21 20 20 20 20 19 19 19 19 19 19 19 18 18 18 18 18 18 18 18 18 18 18 18 18 18 18 17 17 17 18 18 18 18 18 18 18 18 17 17 17 17
20 20 20 20 20 20 19 19 19 19 19 19 18 18 18 18 18 18 18 18 18 18 18 18 18 18 18 18 17 17 17 18 18 18 17 17 17 17 17 17 17 17 17
20 20 20 20 20 19 19 19 19 19 19 18 18 18 18 18 18 18 18 18 18 18 17 17 17 17 17 17 17 17 17 17 17 18 17 17 17 17 17 17 17 17 17
20 20 19 19 19 19 19 19 19 19 18 18 18 18 18 18 18 17 17 17 17 17 17 17 17 17 17 17 17 17 17 17 17 17 17 17 17 17 17 17 17 17 17
20 20 19 19 19 19 19 19 19 19 18 18 18 18 18 18 18 17 17 17 17 17 17 17 17 17 17 17 17 17 17 17 17 17 17 17 17 17 17 17 17 17 17
19 19 19 19 19 19 19 19 19 18 18 18 18 18 18 18 17 17 17 17 17 17 17 17 17 17 17 17 17 17 17 17 17 17 17 17 17 17 17 17 17 17 17
19 19 19 19 19 19 19 19 19 18 18 18 18 18 17 17 17 17 17 17 17 17 16 16 16 16 16 16 16 16 16 16 16 17 17 17 17 17 17 17 17 17 17
19 19 19 19 19 18 19 19 18 18 18 18 18 18 18 17 17 17 17 17 16 16 16 16 16 16 16 16 16 16 16 16 16 16 16 16 16 16 16 16 16 16 16
19 18 18 18 18 18 18 18 18 18 18 18 18 18 17 17 17 17 17 16 16 16 16 16 16 16 16 16 16 16 16 16 16 16 16 16 16 16 16 16 16 16 16
18 18 18 18 18 18 18 18 18 18 18 18 18 18 17 17 17 17 17 16 16 16 16 16 16 16 16 16 16 16 16 16 16 16 16 16 16 16 16 16 16 16 16
18 18 18 18 18 18 18 18 18 18 18 18 18 17 17 17 17 16 16 16 16 16 16 16 16 16 16 16 16 16 16 16 16 16 16 16 16 16 16 16 16 16 16
18 18 18 18 18 18 18 18 18 18 18 18 17 17 17 17 16 16 16 16 16 15 15 15 15 15 15 16 16 16 16 16 16 16 16 16 16 16 16 16 16 16 16
18 18 18 18 18 18 18 18 18 18 18 17 17 17 17 17 16 16 16 15 15 15 15 15 15 15 15 15 16 16 16 16 16 16 16 16 16 16 16 16 15 15 15
18 18 18 18 18 18 18 18 18 17 17 17 17 17 17 16 16 16 16 15 15 15 15 15 15 15 15 15 15 16 16 15 15 15 16 15 16 15 15 15 15 15 15
18 18 18 18 18 18 18 18 18 18 18 17 17 17 17 16 16 16 15 15 15 15 15 15 15 15 15 15 15 15 15 15 15 15 15 15 15 15 15 15 15 15 15
18 18 18 18 18 18 18 18 18 18 18 17 17 17 17 16 16 16 15 15 15 15 15 15 15 15 15 15 15 15 15 15 15 15 15 15 15 15 15 15 15 15 15
18 18 18 18 18 18 18 18 18 18 18 17 17 17 17 16 16 16 15 15 15 15 15 15 15 15 15 15 15 15 15 15 15 15 15 15 15 15 15 15 15 15 15
Wind_Speed
11 16 22 22 22 21 20 20 19 19 19 19 19 19 18 18 18 17 17 16 15 15 14 14 14 14 14 14 15 15 15 15 16 17 16 16 16 17 18 19 18 17 19
15 20 24 23 22 22 21 20 19 19 18 18 18 18 18 17 17 16 16 15 15 14 14 13 13 13 13 13 14 14 14 14 15 16 16 15 15 16 17 17 17 16 18
18 20 23 24 23 22 21 20 19 19 18 18 17 17 17 16 16 16 15 15 14 14 13 13 13 12 12 12 12 12 12 12 13 14 15 13 14 16 17 17 17 17 17
19 20 22 24 24 23 22 20 19 19 18 17 17 17 16 16 16 15 15 14 13 13 13 12 12 12 11 11 11 10 9 9 11 12 11 11 13 16 17 17 17 16 16
16 19 23 25 24 23 22 21 19 19 18 17 17 16 16 16 15 15 14 14 13 12 12 11 11 10 10 10 9 8 7 7 8 10 10 11 13 15 16 16 16 16 15
15 18 23 25 24 23 22 21 20 19 18 17 17 16 16 15 15 14 14 13 13 12 11 10 9 9 9 8 8 8 8 7 9 10 12 12 13 15 15 15 15 15 15
15 17 22 24 24 23 22 21 20 19 17 17 17 16 15 15 14 14 13 13 12 11 10 9 8 7 7 7 7 8 9 9 10 12 12 12 13 15 14 14 14 14 14
18 15 20 24 23 23 22 21 20 19 18 17 16 16 15 14 14 13 12 12 11 10 9 8 6 6 5 5 6 7 9 10 11 11 11 11 13 15 14 14 13 13 13
16 14 15 19 21 22 21 21 20 19 18 17 16 15 15 14 13 12 11 11 10 9 8 6 5 4 3 3 4 6 7 10 12 11 11 11 13 14 14 13 13 13 13
14 13 12 15 17 18 18 20 19 18 17 16 15 15 14 13 12 12 11 10 9 8 6 5 3 2 0 2 2 4 6 10 11 11 10 11 14 14 14 13 13 13 13
14 12 11 12 13 15 16 18 18 18 17 16 14 14 13 11 10 10 9 10 9 7 6 4 2 1 1 3 3 2 5 7 10 10 10 11 13 13 14 13 13 13 13
16 13 12 12 12 14 14 15 14 14 14 13 12 12 11 10 9 9 9 9 8 6 5 3 2 2 1 3 3 2 4 7 9 9 10 14 14 14 14 14 13 13 13
18 15 13 12 12 11 9 12 10 10 11 11 11 11 9 8 8 7 6 6 5 4 3 1 1 0 0 1 1 3 6 7 8 9 11 14 15 14 14 15 14 13 13
17 15 13 12 10 9 10 9 9 7 8 7 10 11 9 6 5 5 4 4 3 3 3 2 1 1 1 1 2 4 7 7 8 8 11 14 15 15 15 15 14 14 13
14 14 13 12 10 9 9 8 8 7 8 8 9 11 11 7 5 4 4 4 4 3 3 2 2 1 1 1 3 5 6 8 9 9 9 12 14 15 15 15 15 15 14
14 14 13 13 11 9 9 7 7 8 9 9 9 11 12 10 7 5 4 4 3 3 3 4 3 2 2 2 2 3 5 7 9 9 9 10 13 14 15 15 15 15 15
14 13 12 13 11 11 10 8 8 9 9 7 9 11 12 11 9 7 4 3 3 4 5 5 4 4 3 2 2 2 3 5 7 8 9 9 10 12 14 14 14 14 15
12 13 13 13 11 9 9 7 7 8 9 8 10 11 11 12 11 8 4 3 4 6 5 3 3 3 3 3 2 1 1 2 4 6 7 8 8 8 11 13 13 14 14
12 13 13 12 12 10 9 7 7 8 8 9 10 9 10 11 11 8 4 4 6 5 3 3 3 2 2 2 1 1 1 1 1 3 4 6 8 8 9 10 12 12 13
12 12 13 12 11 10 8 7 6 6 6 7 8 9 10 10 10 9 5 5 6 4 3 3 3 2 1 1 2 2 2 1 0 1 1 3 5 6 7 7 8 10 11
11 12 12 12 11 10 8 8 7 6 6 5 5 9 10 10 10 8 5 4 4 4 3 3 2 3 2 2 3 4 4 4 2 1 1 2 2 3 5 6 6 6 6
12 12 12 12 11 10 8 7 6 6 5 5 4 6 9 9 9 8 6 4 4 4 4 4 3 3 2 2 3 3 3 4 4 3 1 1 2 2 2 4 5 5 5
12 14 13 12 11 10 9 7 6 5 4 3 4 4 5 9 8 8 7 5 4 4 4 3 4 4 2 2 2 4 4 2 2 4 3 2 1 1 1 3 4 5 5
12 12 11 12 12 11 10 10 11 8 6 6 5 5 4 7 8 9 8 7 5 4 4 3 4 3 4 2 2 2 2 4 3 1 3 3 2 1 0 1 3 4 5
11 11 11 11 11 10 10 11 10 7 5 5 5 6 5 4 7 8 8 7 5 4 4 4 4 4 3 3 1 1 2 3 3 3 0 3 3 2 1 1 2 3 6
9 10 11 12 11 10 10 10 10 10 8 8 7 7 5 3 4 5 8 6 6 5 5 4 4 5 3 3 2 2 2 2 2 3 2 1 2 3 2 1 1 3 5
Wind_Direction
149 151 144 137 131 126 122 119 117 114 112 109 107 106 105 105 106 105 106 105 105 103 101 100 99 98 99 99 100 103 106 108 110 111 110 110 112 114 112 111 109 109 111
148 150 144 139 134 131 128 125 123 120 117 114 113 112 110 110 109 109 109 108 106 104 102 102 100 99 98 98 99 101 105 108 109 111 110 110 114 116 114 113 112 115 114
143 146 143 140 137 134 132 130 128 126 123 120 118 116 114 114 114 113 112 111 109 106 104 103 102 100 98 96 96 98 102 105 107 110 108 106 111 115 117 116 115 115 114
142 143 143 141 139 137 135 134 133 130 128 126 123 121 119 118 118 117 115 113 111 109 108 106 104 101 97 94 92 92 96 103 112 115 113 113 114 117 119 119 118 117 116
140 143 145 143 141 139 138 137 136 134 132 131 128 126 125 123 121 119 118 116 114 112 110 108 106 102 98 93 88 82 80 93 112 120 124 119 119 123 123 123 121 119 119
140 143 146 144 142 141 141 140 139 138 136 134 132 131 130 128 126 123 122 120 117 115 112 109 107 104 97 89 80 69 64 83 106 114 123 126 127 128 128 127 125 124 123
140 143 146 145 144 143 143 143 142 141 140 137 136 135 134 132 130 128 128 125 122 121 119 114 109 104 95 84 72 62 64 82 111 121 126 130 134 134 132 131 130 129 129
143 143 147 148 147 146 146 146 146 146 145 144 141 140 139 136 135 134 133 132 130 128 127 125 117 107 92 74 63 60 74 93 113 127 131 135 140 138 137 136 135 135 135
142 142 145 149 149 149 149 150 149 150 150 149 147 145 144 144 143 142 142 141 139 138 137 137 131 117 89 57 50 60 86 105 121 133 140 145 145 144 144 143 142 141 139
144 146 147 148 148 150 152 154 153 153 154 153 151 152 152 152 152 153 153 152 152 153 152 150 145 138 42 349 7 58 98 115 132 139 147 158 154 153 152 150 148 147 146
148 151 151 149 150 151 154 158 156 157 158 157 158 159 158 157 159 163 165 165 164 165 168 173 179 213 303 323 331 33 106 128 138 144 157 170 166 163 161 159 157 155 154
159 161 161 158 156 156 160 156 158 159 161 161 164 165 164 167 172 174 177 173 171 173 178 193 217 242 302 324 337 53 114 138 140 152 170 177 175 173 169 167 166 164 162
163 164 164 164 163 164 153 155 159 159 163 169 174 175 171 169 169 163 166 167 167 167 154 142 109 130 318 321 28 100 124 135 147 162 176 183 181 180 178 174 173 172 170
161 167 167 165 164 164 154 160 162 163 171 176 177 170 158 152 150 150 151 153 146 142 134 116 104 99 94 102 93 117 130 135 149 161 178 189 190 188 185 181 180 178 177
159 162 163 157 163 162 155 163 165 168 176 175 166 163 154 145 145 141 138 133 135 137 133 109 96 95 99 97 101 116 135 149 159 167 184 196 199 197 193 187 186 185 185
160 160 161 156 163 162 160 159 161 165 166 159 151 150 146 142 141 133 125 115 109 114 119 106 94 88 76 76 80 114 140 153 164 174 186 203 208 205 200 194 193 191 191
154 156 157 158 161 160 157 156 157 157 156 148 143 141 138 135 133 128 120 112 105 102 99 81 66 68 67 63 55 76 132 156 167 175 184 199 208 207 204 199 198 199 198
146 154 159 161 159 156 151 145 149 152 149 144 142 139 135 134 131 121 116 109 102 96 93 87 65 67 59 61 56 35 80 147 167 182 189 198 204 207 208 206 205 206 205
156 160 161 159 158 154 149 145 142 144 144 143 140 136 133 132 130 123 118 113 104 91 83 87 70 84 72 45 36 67 51 127 165 171 179 194 201 206 209 212 213 214 214
163 166 162 158 156 151 144 133 128 132 139 141 139 139 136 134 131 123 117 110 106 94 80 78 73 62 87 69 44 41 11 9 88 122 149 169 190 196 200 207 214 219 220
168 167 163 161 161 156 151 147 145 150 150 146 146 146 141 139 135 127 118 113 109 109 112 102 86 62 37 48 64 29 8 14 33 56 83 100 115 151 171 191 200 211 221
174 172 170 166 166 164 161 156 152 146 149 152 145 149 150 143 142 140 129 130 124 113 97 82 82 82 31 52 104 86 37 8 0 10 20 95 91 100 135 173 181 189 204
175 171 172 170 167 165 157 140 130 115 109 119 146 157 161 153 147 143 142 136 131 126 122 108 99 102 76 19 79 129 128 189 316 340 353 20 63 78 88 150 162 174 181
183 174 168 169 167 168 159 155 155 157 160 175 171 168 165 159 155 152 148 142 134 132 134 132 111 109 108 61 13 44 130 150 137 4 335 341 351 44 174 152 148 158 164
183 172 166 163 167 169 167 163 161 159 162 157 155 157 163 163 163 158 153 143 136 138 141 130 116 109 114 120 97 66 64 64 89 128 249 323 339 321 289 199 171 170 173
175 170 167 169 173 173 170 169 168 166 162 157 164 167 170 169 169 165 159 151 149 147 148 146 137 127 126 122 113 106 120 118 128 129 154 255 296 300 309 294 220 191 186
Height
1528 1530 1533 1535 1537 1538 1539 1540 1541 1542 1543 1544 1545 1546 1547 1548 1549 1549 1550 1551 1552 1552 1553 1553 1554 1554 1554 1555 1555 1556 1556 1556 1557 1557 1557 1558 1558 1559 1560 1560 1561 1561 1562
1525 1529 1533 1535 1537 1538 1540 1541 1542 1543 1544 1545 1546 1547 1548 1549 1550 1550 1551 1552 1553 1553 1554 1554 1555 1555 1556 1556 1557 1557 1558 1558 1559 1559 1560 1560 1560 1561 1562 1562 1563 1563 1564
1526 1529 1533 1535 1537 1539 1540 1542 1543 1544 1545 1546 1547 1548 1549 1550 1551 1552 1552 1553 1554 1554 1555 1556 1556 1557 1557 1558 1558 1559 1560 1560 1561 1561 1562 1562 1562 1563 1564 1564 1565 1565 1566
1526 1529 1533 1535 1537 1539 1541 1542 1543 1545 1546 1547 1548 1549 1550 1551 1552 1553 1553 1554 1555 1556 1556 1557 1558 1558 1559 1560 1560 1561 1561 1562 1562 1563 1563 1564 1564 1565 1565 1566 1567 1567 1568
1526 1530 1533 1536 1538 1539 1541 1543 1544 1545 1546 1547 1548 1550 1551 1552 1553 1553 1554 1555 1556 1557 1558 1558 1559 1560 1561 1561 1562 1563 1563 1563 1564 1564 1565 1565 1566 1566 1567 1568 1568 1569 1570
1526 1530 1533 1536 1538 1540 1541 1543 1544 1546 1547 1548 1549 1550 1551 1552 1553 1554 1555 1556 1557 1558 1559 1560 1561 1561 1562 1563 1564 1564 1565 1565 1565 1566 1566 1567 1567 1568 1569 1569 1570 1571 1572
1526 1530 1534 1536 1538 1540 1541 1543 1545 1546 1548 1549 1550 1551 1552 1553 1554 1555 1556 1557 1558 1559 1560 1561 1562 1563 1564 1565 1565 1566 1566 1566 1566 1567 1568 1568 1569 1569 1570 1571 1572 1572 1573
1526 1530 1534 1537 1539 1540 1542 1543 1545 1547 1548 1549 1550 1551 1553 1554 1555 1556 1557 1558 1559 1560 1561 1562 1563 1564 1565 1566 1566 1567 1567 1567 1568 1568 1569 1570 1570 1571 1571 1572 1573 1574 1574
1527 1530 1533 1536 1538 1540 1542 1544 1546 1547 1548 1549 1551 1552 1553 1554 1555 1557 1558 1559 1560 1561 1562 1563 1564 1565 1566 1567 1567 1567 1567 1568 1568 1569 1570 1570 1571 1572 1572 1573 1574 1575 1575
1527 1530 1532 1535 1538 1540 1542 1544 1546 1547 1549 1550 1551 1553 1554 1555 1556 1557 1558 1559 1560 1561 1562 1563 1564 1565 1566 1567 1567 1568 1568 1568 1569 1569 1570 1571 1571 1572 1573 1574 1575 1576 1576
1526 1530 1532 1535 1537 1540 1542 1544 1546 1547 1549 1550 1551 1553 1554 1555 1556 1557 1558 1559 1560 1561 1563 1564 1564 1565 1566 1567 1567 1567 1568 1568 1569 1570 1570 1571 1572 1573 1573 1574 1575 1576 1577
1524 1528 1531 1534 1536 1539 1542 1544 1546 1547 1549 1550 1551 1553 1554 1555 1556 1558 1559 1560 1561 1561 1562 1563 1564 1565 1566 1567 1567 1567 1567 1568 1569 1570 1570 1571 1572 1573 1574 1575 1576 1577 1578
1521 1526 1529 1533 1535 1538 1541 1543 1545 1547 1549 1550 1551 1553 1554 1555 1556 1557 1558 1559 1560 1561 1562 1563 1564 1565 1566 1566 1567 1567 1567 1568 1568 1569 1570 1571 1572 1573 1574 1574 1576 1577 1578
1518 1523 1528 1531 1534 1537 1540 1543 1545 1547 1548 1550 1551 1552 1554 1555 1556 1557 1558 1559 1559 1561 1561 1562 1563 1564 1565 1566 1566 1567 1567 1568 1568 1569 1569 1570 1571 1572 1573 1574 1575 1577 1578
1516 1521 1525 1529 1533 1536 1539 1542 1544 1547 1548 1550 1551 1552 1553 1554 1555 1556 1557 1558 1559 1560 1561 1562 1563 1564 1565 1565 1566 1566 1567 1567 1568 1569 1569 1570 1571 1572 1572 1573 1575 1576 1577
1513 1518 1523 1526 1531 1535 1538 1540 1543 1546 1548 1549 1550 1552 1553 1554 1555 1556 1557 1558 1558 1559 1560 1561 1562 1563 1564 1564 1565 1565 1566 1567 1567 1568 1569 1569 1570 1571 1572 1573 1574 1575 1576
1512 1517 1521 1525 1529 1533 1537 1539 1542 1545 1547 1549 1550 1551 1553 1554 1554 1555 1556 1557 1558 1558 1559 1560 1561 1562 1563 1564 1564 1565 1565 1566 1567 1567 1568 1569 1570 1570 1571 1572 1573 1574 1575
1511 1514 1519 1523 1527 1532 1536 1538 1541 1544 1546 1548 1550 1551 1552 1553 1554 1554 1555 1556 1557 1557 1558 1559 1560 1561 1562 1563 1564 1564 1565 1565 1566 1567 1568 1568 1569 1570 1570 1571 1572 1573 1573
1509 1513 1518 1522 1526 1531 1535 1537 1541 1543 1545 1547 1549 1550 1551 1552 1553 1553 1554 1555 1556 1556 1557 1558 1559 1560 1561 1562 1563 1564 1564 1565 1565 1566 1567 1567 1568 1569 1569 1570 1570 1571 1572
1508 1512 1516 1521 1525 1529 1533 1537 1539 1542 1544 1546 1548 1549 1550 1551 1552 1552 1553 1554 1555 1555 1556 1557 1558 1560 1561 1562 1562 1563 1564 1565 1565 1566 1567 1567 1567 1568 1568 1569 1569 1570 1570
1507 1510 1514 1519 1523 1527 1531 1534 1537 1539 1542 1545 1546 1548 1549 1550 1551 1551 1552 1553 1554 1555 1556 1557 1558 1559 1560 1561 1562 1563 1564 1565 1565 1566 1566 1567 1567 1567 1568 1568 1568 1569 1569
1504 1508 1512 1516 1521 1525 1529 1533 1536 1538 1541 1544 1545 1547 1548 1549 1550 1550 1551 1552 1553 1554 1555 1556 1557 1558 1559 1560 1561 1562 1563 1565 1565 1566 1566 1567 1567 1567 1567 1567 1567 1568 1568
1502 1506 1511 1515 1519 1523 1528 1532 1535 1538 1540 1542 1544 1545 1547 1548 1549 1550 1551 1552 1553 1554 1555 1556 1557 1558 1559 1560 1560 1562 1562 1563 1564 1566 1566 1566 1566 1566 1566 1566 1567 1567 1567
1502 1506 1509 1513 1519 1523 1527 1530 1532 1535 1537 1540 1542 1544 1546 1547 1548 1549 1550 1551 1552 1553 1554 1555 1556 1558 1558 1559 1560 1561 1562 1562 1563 1565 1566 1566 1566 1566 1566 1566 1566 1566 1566
1501 1505 1509 1513 1518 1522 1525 1528 1531 1533 1536 1539 1541 1543 1544 1546 1547 1548 1549 1550 1551 1552 1553 1554 1556 1557 1558 1559 1560 1560 1561 1562 1562 1563 1564 1565 1565 1565 1565 1565 1565 1565 1565
1501 1505 1508 1512 1516 1520 1523 1526 1529 1532 1535 1537 1539 1541 1543 1545 1546 1547 1548 1550 1551 1551 1552 1553 1554 1556 1557 1558 1559 1560 1560 1561 1561 1562 1563 1563 1564 1564 1564 1565 1565 1564 1564